Location: Cartersville (historical)
(42.9944°N, 93.0869°W)
Time: 02:58:09
(UTC+00:00)

Envisat - Pass Details

Date: 10 October 2024
Orbit: 762 x 763 km, 98.3° (Epoch: 04 November)

Event Time Altitude Azimuth Distance (km) Brightness Sun altitude
Rises 10:01:31 0° 6° (N) 3,236 6.5 -26.0°
Reaches altitude 10° 10:03:55 10° 360° (N) 2,305 5.6 -25.6°
Enters shadow 10:07:00 32° 333° (NNW) 1,304 4.0 -25.1°
